This is the latest recevied weather packets stored in our database for station/object CA4LJZ-10. If no packets are shown the sender has not sent any weather packets the latest 1 day(s).
| Time | Temp. | Humidity | Pressure | Rain* | Wind** | Luminosity | Snow |
|---|---|---|---|---|---|---|---|
| 1777913158 | 20.56° C | 35% | 954.3 hPa | - | - | - | - |
| 1777912258 | 20° C | 38% | 954.4 hPa | - | - | - | - |
| 1777911357 | 20° C | 39% | 954.4 hPa | - | - | - | - |
| 1777910841 | 19.44° C | 39% | 954.4 hPa | - | - | - | - |
| 1777910456 | 19.44° C | 39% | 954.4 hPa | - | - | - | - |
| 1777909555 | 20° C | 40% | 954.4 hPa | - | - | - | - |
| 1777908650 | 20° C | 40% | 954.5 hPa | - | - | - | - |
| 1777907750 | 20° C | 38% | 954.5 hPa | - | - | - | - |
| 1777906849 | 20° C | 36% | 954.6 hPa | - | - | - | - |
| 1777905948 | 19.44° C | 38% | 954.5 hPa | - | - | - | - |
| 1777905046 | 20.56° C | 38% | 954.4 hPa | - | - | - | - |
| 1777904169 | 19.44° C | 38% | 954.1 hPa | - | - | - | - |
| 1777903268 | 18.89° C | 42% | 954 hPa | - | - | - | - |
| 1777902367 | 18.89° C | 42% | 954 hPa | - | - | - | - |
| 1777901467 | 18.33° C | 43% | 954.1 hPa | - | - | - | - |
| 1777900566 | 18.33° C | 42% | 954.2 hPa | - | - | - | - |
| 1777899664 | 18.33° C | 41% | 954.2 hPa | - | - | - | - |
| 1777898764 | 18.33° C | 40% | 954 hPa | - | - | - | - |
| 1777898091 | 17.78° C | 40% | 954 hPa | - | - | - | - |
| 1777897863 | 17.78° C | 40% | 954 hPa | - | - | - | - |
| 1777896962 | 17.78° C | 42% | 954 hPa | - | - | - | - |
| 1777896061 | 17.78° C | 41% | 954 hPa | - | - | - | - |
| 1777895160 | 17.78° C | 41% | 954 hPa | - | - | - | - |
| 1777894259 | 17.78° C | 41% | 953.8 hPa | - | - | - | - |
| 1777893358 | 17.78° C | 41% | 953.7 hPa | - | - | - | - |
* Rain since midnight (hover to see other rain measurements)
** Current wind speed in m/s (hover to see current wind gust speed)